Track STARLINK-5264 now! 10-day predictions STARLINK-5264 is classified as:
1 54206U 22141BB 24325.29591506 .00000012 00000-0 18880-4 0 9992 2 54206 53.2176 288.5907 0001563 98.6770 261.4399 15.08840232114872